Time,TemperatureF,DewpointF,PressureIn,WindDirection,WindDirectionDegrees,WindSpeedMPH,WindSpeedGustMPH,Humidity,HourlyPrecipIn,Conditions,Clouds,dailyrainin,SolarRadiationWatts/m^2,SoftwareType,DateUTC
2013-12-09 00:02:00,34.6,34.1,30.32,NE,42,3.0,3.0,98,0.00,,,0.00,0,Wunderground v.1.15,2013-12-09 05:02:00,
2013-12-09 00:04:00,34.6,34.1,30.32,NE,42,3.0,3.0,98,0.00,,,0.00,0,Wunderground v.1.15,2013-12-09 05:04:00,
2013-12-09 00:08:00,34.6,34.1,30.32,NE,42,2.0,3.0,98,0.00,,,0.01,0,Wunderground v.1.15,2013-12-09 05:08:00,
2013-12-09 00:10:00,34.6,34.1,30.32,NE,42,2.0,2.0,98,0.00,,,0.01,0,Wunderground v.1.15,2013-12-09 05:10:00,
2013-12-09 00:14:00,34.7,34.4,30.31,North,352,2.0,5.0,99,0.00,,,0.01,0,Wunderground v.1.15,2013-12-09 05:14:00,
2013-12-09 00:20:00,34.7,34.4,30.31,North,0,1.0,1.0,99,0.00,,,0.01,0,Wunderground v.1.15,2013-12-09 05:20:00,
2013-12-09 00:22:00,34.7,34.4,30.31,North,0,1.0,2.0,99,0.00,,,0.01,0,Wunderground v.1.15,2013-12-09 05:22:00,
2013-12-09 00:28:00,34.7,34.4,30.31,North,0,1.0,2.0,99,0.00,,,0.01,0,Wunderground v.1.15,2013-12-09 05:28:00,
2013-12-09 00:34:00,34.9,34.6,30.30,North,0,1.0,1.0,99,0.00,,,0.01,0,Wunderground v.1.15,2013-12-09 05:34:00,
2013-12-09 00:41:00,34.9,34.6,30.30,North,0,1.0,2.0,99,0.00,,,0.01,0,Wunderground v.1.15,2013-12-09 05:41:00,
2013-12-09 00:46:00,35.0,34.7,30.28,North,0,1.0,2.0,99,0.00,,,0.01,0,Wunderground v.1.15,2013-12-09 05:46:00,
2013-12-09 00:52:00,35.0,34.7,30.28,North,0,1.0,2.0,99,0.00,,,0.01,0,Wunderground v.1.15,2013-12-09 05:52:00,
2013-12-09 00:58:00,35.0,34.7,30.28,North,0,1.0,2.0,99,0.00,,,0.01,0,Wunderground v.1.15,2013-12-09 05:58:00,
2013-12-09 01:04:00,35.0,34.7,30.27,North,0,1.0,1.0,99,0.00,,,0.01,0,Wunderground v.1.15,2013-12-09 06:04:00,
2013-12-09 01:10:00,35.0,34.7,30.27,North,0,1.0,1.0,99,0.00,,,0.01,0,Wunderground v.1.15,2013-12-09 06:10:00,
2013-12-09 01:16:00,35.0,34.7,30.27,North,0,1.0,2.0,99,0.00,,,0.01,0,Wunderground v.1.15,2013-12-09 06:16:00,
2013-12-09 01:22:00,35.2,34.9,30.27,North,0,1.0,1.0,99,0.00,,,0.01,0,Wunderground v.1.15,2013-12-09 06:22:00,
2013-12-09 01:28:00,35.2,34.9,30.27,North,0,1.0,2.0,99,0.00,,,0.01,0,Wunderground v.1.15,2013-12-09 06:28:00,
2013-12-09 01:34:00,35.0,34.7,30.26,North,0,2.0,2.0,99,0.00,,,0.01,0,Wunderground v.1.15,2013-12-09 06:34:00,
2013-12-09 01:40:00,35.0,34.7,30.26,North,0,1.0,1.0,99,0.00,,,0.01,0,Wunderground v.1.15,2013-12-09 06:40:00,
2013-12-09 01:46:00,35.0,34.7,30.25,North,0,1.0,1.0,99,0.00,,,0.01,0,Wunderground v.1.15,2013-12-09 06:46:00,
2013-12-09 01:52:00,35.0,34.7,30.25,North,0,1.0,2.0,99,0.00,,,0.01,0,Wunderground v.1.15,2013-12-09 06:52:00,
2013-12-09 01:58:00,35.2,34.9,30.25,North,0,1.0,2.0,99,0.00,,,0.01,0,Wunderground v.1.15,2013-12-09 06:58:00,
2013-12-09 02:04:00,35.2,34.9,30.25,North,0,0.0,1.0,99,0.00,,,0.01,0,Wunderground v.1.15,2013-12-09 07:04:00,
2013-12-09 02:10:00,35.2,34.9,30.25,North,0,1.0,1.0,99,0.00,,,0.01,0,Wunderground v.1.15,2013-12-09 07:10:00,
2013-12-09 02:16:00,35.2,34.9,30.25,North,0,0.0,1.0,99,0.00,,,0.01,0,Wunderground v.1.15,2013-12-09 07:16:00,
2013-12-09 02:22:00,35.3,35.0,30.25,North,0,0.0,0.0,99,0.00,,,0.01,0,Wunderground v.1.15,2013-12-09 07:22:00,
2013-12-09 02:28:00,35.3,35.0,30.25,North,0,0.0,0.0,99,0.00,,,0.01,0,Wunderground v.1.15,2013-12-09 07:28:00,
2013-12-09 02:34:00,35.3,35.0,30.25,North,0,0.0,0.0,99,0.00,,,0.01,0,Wunderground v.1.15,2013-12-09 07:34:00,
2013-12-09 02:40:00,35.3,35.0,30.25,North,0,0.0,2.0,99,0.00,,,0.01,0,Wunderground v.1.15,2013-12-09 07:40:00,
2013-12-09 02:46:00,35.3,35.0,30.26,North,0,0.0,2.0,99,0.00,,,0.01,0,Wunderground v.1.15,2013-12-09 07:46:00,
2013-12-09 02:52:00,35.3,35.0,30.26,North,0,0.0,0.0,99,0.00,,,0.01,0,Wunderground v.1.15,2013-12-09 07:52:00,
2013-12-09 02:58:00,35.5,35.2,30.26,North,0,0.0,0.0,99,0.00,,,0.01,0,Wunderground v.1.15,2013-12-09 07:58:00,
2013-12-09 03:04:00,35.5,35.2,30.26,North,0,0.0,2.0,99,0.00,,,0.01,0,Wunderground v.1.15,2013-12-09 08:04:00,
2013-12-09 03:12:00,35.6,35.3,30.26,North,353,1.0,2.0,99,0.00,,,0.01,0,Wunderground v.1.15,2013-12-09 08:12:00,
2013-12-09 03:18:00,35.6,35.3,30.25,North,353,1.0,2.0,99,0.00,,,0.01,0,Wunderground v.1.15,2013-12-09 08:18:00,
2013-12-09 03:24:00,35.6,35.3,30.25,North,353,1.0,2.0,99,0.00,,,0.01,0,Wunderground v.1.15,2013-12-09 08:24:00,
2013-12-09 03:31:00,35.6,35.3,30.25,North,353,1.0,1.0,99,0.00,,,0.01,0,Wunderground v.1.15,2013-12-09 08:31:00,
2013-12-09 03:36:00,35.6,35.3,30.25,North,353,0.0,1.0,99,0.00,,,0.01,0,Wunderground v.1.15,2013-12-09 08:36:00,
2013-12-09 03:42:00,35.6,35.3,30.25,North,353,0.0,0.0,99,0.00,,,0.01,0,Wunderground v.1.15,2013-12-09 08:42:00,
2013-12-09 03:48:00,35.6,35.3,30.25,North,353,0.0,0.0,99,0.00,,,0.01,0,Wunderground v.1.15,2013-12-09 08:48:00,
2013-12-09 03:54:00,35.8,35.5,30.25,North,353,0.0,0.0,99,0.00,,,0.01,0,Wunderground v.1.15,2013-12-09 08:54:00,
2013-12-09 03:56:00,35.8,35.5,30.25,North,353,0.0,0.0,99,0.00,,,0.01,0,Wunderground v.1.15,2013-12-09 08:56:00,
2013-12-09 04:02:00,35.8,35.5,30.25,North,353,0.0,0.0,99,0.00,,,0.01,0,Wunderground v.1.15,2013-12-09 09:02:00,
2013-12-09 04:08:00,35.8,35.5,30.25,North,353,0.0,0.0,99,0.00,,,0.01,0,Wunderground v.1.15,2013-12-09 09:08:00,
2013-12-09 04:14:00,35.8,35.5,30.25,North,353,0.0,0.0,99,0.00,,,0.01,0,Wunderground v.1.15,2013-12-09 09:14:00,
2013-12-09 04:20:00,35.9,35.6,30.25,North,353,0.0,0.0,99,0.00,,,0.01,0,Wunderground v.1.15,2013-12-09 09:20:00,
2013-12-09 04:26:00,35.9,35.6,30.25,North,353,0.0,0.0,99,0.00,,,0.01,0,Wunderground v.1.15,2013-12-09 09:26:00,
2013-12-09 04:32:00,35.9,35.6,30.24,North,353,0.0,0.0,99,0.00,,,0.01,0,Wunderground v.1.15,2013-12-09 09:32:00,
2013-12-09 04:38:00,35.9,35.6,30.24,North,353,0.0,0.0,99,0.00,,,0.01,0,Wunderground v.1.15,2013-12-09 09:38:00,
2013-12-09 04:44:00,35.9,35.6,30.23,North,353,0.0,2.0,99,0.00,,,0.01,0,Wunderground v.1.15,2013-12-09 09:44:00,
2013-12-09 04:50:00,36.0,35.7,30.23,North,353,0.0,0.0,99,0.00,,,0.01,0,Wunderground v.1.15,2013-12-09 09:50:00,
2013-12-09 04:56:00,36.0,35.7,30.23,North,353,0.0,0.0,99,0.00,,,0.01,0,Wunderground v.1.15,2013-12-09 09:56:00,
2013-12-09 05:02:00,36.0,35.7,30.22,West,263,1.0,2.0,99,0.00,,,0.01,0,Wunderground v.1.15,2013-12-09 10:02:00,
2013-12-09 05:08:00,36.0,35.7,30.22,West,261,1.0,4.0,99,0.00,,,0.01,0,Wunderground v.1.15,2013-12-09 10:08:00,
2013-12-09 05:14:00,36.0,35.7,30.20,South,185,1.0,2.0,99,0.00,,,0.01,0,Wunderground v.1.15,2013-12-09 10:14:00,
2013-12-09 05:20:00,36.2,35.9,30.20,SSE,155,1.0,2.0,99,0.00,,,0.01,0,Wunderground v.1.15,2013-12-09 10:20:00,
2013-12-09 05:26:00,36.2,35.9,30.20,SSE,155,1.0,2.0,99,0.00,,,0.01,0,Wunderground v.1.15,2013-12-09 10:26:00,
2013-12-09 05:32:00,36.0,35.7,30.19,SSE,155,1.0,1.0,99,0.00,,,0.01,0,Wunderground v.1.15,2013-12-09 10:32:00,
2013-12-09 05:38:00,36.2,35.9,30.19,SSE,155,1.0,2.0,99,0.00,,,0.01,0,Wunderground v.1.15,2013-12-09 10:38:00,
2013-12-09 05:44:00,36.2,35.9,30.18,SSE,160,1.0,3.0,99,0.00,,,0.01,0,Wunderground v.1.15,2013-12-09 10:44:00,
2013-12-09 05:51:00,36.2,35.9,30.18,SSE,160,1.0,1.0,99,0.00,,,0.01,0,Wunderground v.1.15,2013-12-09 10:51:00,
2013-12-09 05:56:00,36.2,35.9,30.18,SW,215,1.0,2.0,99,0.00,,,0.01,0,Wunderground v.1.15,2013-12-09 10:56:00,
2013-12-09 06:02:00,36.3,36.0,30.20,SW,234,2.0,2.0,99,0.00,,,0.01,0,Wunderground v.1.15,2013-12-09 11:02:00,
2013-12-09 06:08:00,36.3,36.0,30.20,NW,312,1.0,2.0,99,0.00,,,0.01,0,Wunderground v.1.15,2013-12-09 11:08:00,
2013-12-09 06:14:00,36.3,36.0,30.22,NNW,329,2.0,2.0,99,0.00,,,0.01,0,Wunderground v.1.15,2013-12-09 11:14:00,
2013-12-09 06:20:00,36.5,36.2,30.22,NNW,343,3.0,3.0,99,0.00,,,0.01,0,Wunderground v.1.15,2013-12-09 11:20:00,
2013-12-09 06:26:00,36.5,36.2,30.22,NNW,336,3.0,6.0,99,0.00,,,0.01,0,Wunderground v.1.15,2013-12-09 11:26:00,
2013-12-09 06:32:00,36.5,36.2,30.23,NNW,336,1.0,2.0,99,0.00,,,0.01,0,Wunderground v.1.15,2013-12-09 11:32:00,
2013-12-09 06:38:00,36.6,36.3,30.23,NNW,336,1.0,2.0,99,0.00,,,0.01,0,Wunderground v.1.15,2013-12-09 11:38:00,
2013-12-09 06:44:00,36.6,36.3,30.23,WNW,301,1.0,2.0,99,0.00,,,0.01,0,Wunderground v.1.15,2013-12-09 11:44:00,
2013-12-09 06:50:00,36.6,36.3,30.23,WNW,299,2.0,2.0,99,0.00,,,0.01,0,Wunderground v.1.15,2013-12-09 11:50:00,
2013-12-09 06:56:00,36.6,36.3,30.23,WNW,299,1.0,2.0,99,0.00,,,0.01,0,Wunderground v.1.15,2013-12-09 11:56:00,
2013-12-09 07:02:00,36.6,36.3,30.23,WNW,299,1.0,1.0,99,0.00,,,0.02,0,Wunderground v.1.15,2013-12-09 12:02:00,
2013-12-09 07:08:00,36.8,36.5,30.23,WNW,299,1.0,1.0,99,0.00,,,0.02,0,Wunderground v.1.15,2013-12-09 12:08:00,
2013-12-09 07:14:00,36.8,36.8,30.21,WNW,299,0.0,1.0,100,0.00,,,0.02,5,Wunderground v.1.15,2013-12-09 12:14:00,
2013-12-09 07:20:00,36.8,36.8,30.21,WNW,299,0.0,0.0,100,0.00,,,0.02,5,Wunderground v.1.15,2013-12-09 12:20:00,
2013-12-09 07:26:00,36.8,36.8,30.21,WNW,299,0.0,0.0,100,0.00,,,0.02,7,Wunderground v.1.15,2013-12-09 12:26:00,
2013-12-09 07:32:00,36.8,36.8,30.21,WNW,299,0.0,0.0,100,0.00,,,0.02,9,Wunderground v.1.15,2013-12-09 12:32:00,
2013-12-09 07:38:00,36.9,36.9,30.21,WNW,299,0.0,1.0,100,0.00,,,0.02,9,Wunderground v.1.15,2013-12-09 12:38:00,
2013-12-09 07:44:00,36.9,36.9,30.20,WSW,244,1.0,2.0,100,0.00,,,0.02,16,Wunderground v.1.15,2013-12-09 12:44:00,
2013-12-09 07:50:00,37.0,37.0,30.20,WSW,244,1.0,1.0,100,0.00,,,0.02,14,Wunderground v.1.15,2013-12-09 12:50:00,
2013-12-09 08:02:00,37.2,37.2,30.21,WSW,244,1.0,1.0,100,0.00,,,0.02,37,Wunderground v.1.15,2013-12-09 13:02:00,
2013-12-09 08:08:00,37.3,37.3,30.21,WSW,244,1.0,5.0,100,0.00,,,0.02,42,Wunderground v.1.15,2013-12-09 13:08:00,
2013-12-09 08:14:00,37.6,37.6,30.19,WSW,244,1.0,2.0,100,0.00,,,0.02,83,Wunderground v.1.15,2013-12-09 13:14:00,
2013-12-09 08:20:00,37.8,37.8,30.19,SW,220,2.0,2.0,100,0.00,,,0.02,48,Wunderground v.1.15,2013-12-09 13:20:00,
2013-12-09 08:26:00,37.9,37.9,30.19,SW,220,2.0,2.0,100,0.00,,,0.02,44,Wunderground v.1.15,2013-12-09 13:26:00,
2013-12-09 08:32:00,37.9,37.9,30.19,SW,220,2.0,2.0,100,0.00,,,0.02,48,Wunderground v.1.15,2013-12-09 13:32:00,
2013-12-09 08:38:00,38.0,38.0,30.19,SW,220,2.0,2.0,100,0.00,,,0.02,37,Wunderground v.1.15,2013-12-09 13:38:00,
2013-12-09 08:44:00,38.0,38.0,30.19,SW,220,2.0,2.0,100,0.00,,,0.02,44,Wunderground v.1.15,2013-12-09 13:44:00,
2013-12-09 08:51:00,38.2,38.2,30.19,SW,220,2.0,2.0,100,0.00,,,0.02,39,Wunderground v.1.15,2013-12-09 13:51:00,
2013-12-09 08:56:00,38.2,38.2,30.19,SW,220,2.0,2.0,100,0.00,,,0.02,39,Wunderground v.1.15,2013-12-09 13:56:00,
2013-12-09 09:02:00,38.2,38.2,30.20,SW,220,0.0,1.0,100,0.00,,,0.02,28,Wunderground v.1.15,2013-12-09 14:02:00,
2013-12-09 09:08:00,38.3,38.3,30.20,SW,220,0.0,1.0,100,0.00,,,0.02,28,Wunderground v.1.15,2013-12-09 14:08:00,
2013-12-09 09:14:00,38.5,38.5,30.20,SW,220,0.0,0.0,100,0.00,,,0.02,49,Wunderground v.1.15,2013-12-09 14:14:00,
2013-12-09 09:20:00,38.5,38.5,30.20,SW,220,0.0,0.0,100,0.00,,,0.02,58,Wunderground v.1.15,2013-12-09 14:20:00,
2013-12-09 09:26:00,38.6,38.6,30.20,SW,220,0.0,0.0,100,0.00,,,0.02,44,Wunderground v.1.15,2013-12-09 14:26:00,
2013-12-09 09:32:00,38.8,38.8,30.20,SW,220,0.0,0.0,100,0.00,,,0.02,49,Wunderground v.1.15,2013-12-09 14:32:00,
2013-12-09 09:38:00,38.8,38.8,30.20,SW,220,0.0,0.0,100,0.00,,,0.02,46,Wunderground v.1.15,2013-12-09 14:38:00,
2013-12-09 09:44:00,38.9,38.9,30.21,SW,220,1.0,2.0,100,0.00,,,0.02,33,Wunderground v.1.15,2013-12-09 14:44:00,
2013-12-09 09:50:00,39.1,39.1,30.21,SW,220,2.0,2.0,100,0.00,,,0.02,37,Wunderground v.1.15,2013-12-09 14:50:00,
2013-12-09 09:56:00,39.3,39.3,30.21,NW,320,2.0,4.0,100,0.00,,,0.02,46,Wunderground v.1.15,2013-12-09 14:56:00,
2013-12-09 10:02:00,39.3,39.3,30.22,NW,311,3.0,3.0,100,0.00,,,0.02,40,Wunderground v.1.15,2013-12-09 15:02:00,
2013-12-09 10:08:00,39.2,39.2,30.22,NNW,329,3.0,3.0,100,0.00,,,0.02,46,Wunderground v.1.15,2013-12-09 15:08:00,
2013-12-09 10:14:00,39.3,39.3,30.22,NNW,328,2.0,3.0,100,0.00,,,0.02,42,Wunderground v.1.15,2013-12-09 15:14:00,
2013-12-09 10:20:00,39.3,39.3,30.22,WNW,294,1.0,5.0,100,0.00,,,0.02,48,Wunderground v.1.15,2013-12-09 15:20:00,
2013-12-09 10:26:00,39.3,39.3,30.22,WNW,294,1.0,1.0,100,0.00,,,0.02,53,Wunderground v.1.15,2013-12-09 15:26:00,
2013-12-09 10:32:00,39.5,39.5,30.22,NW,315,1.0,1.0,100,0.00,,,0.02,44,Wunderground v.1.15,2013-12-09 15:32:00,
2013-12-09 10:38:00,39.6,39.6,30.22,NW,313,2.0,2.0,100,0.00,,,0.02,48,Wunderground v.1.15,2013-12-09 15:38:00,
2013-12-09 10:44:00,39.8,39.8,30.21,NW,313,1.0,1.0,100,0.00,,,0.02,67,Wunderground v.1.15,2013-12-09 15:44:00,
2013-12-09 10:50:00,39.9,39.9,30.21,NW,305,0.0,1.0,100,0.00,,,0.02,62,Wunderground v.1.15,2013-12-09 15:50:00,
2013-12-09 10:56:00,40.1,40.1,30.21,NW,305,0.0,0.0,100,0.00,,,0.02,70,Wunderground v.1.15,2013-12-09 15:56:00,
2013-12-09 11:02:00,40.2,40.2,30.20,North,357,0.0,2.0,100,0.00,,,0.02,76,Wunderground v.1.15,2013-12-09 16:02:00,
2013-12-09 11:08:00,40.2,40.2,30.20,NW,304,0.0,2.0,100,0.00,,,0.02,65,Wunderground v.1.15,2013-12-09 16:08:00,
2013-12-09 11:14:00,40.5,40.5,30.20,NW,304,0.0,0.0,100,0.00,,,0.02,65,Wunderground v.1.15,2013-12-09 16:14:00,
2013-12-09 11:20:00,40.6,40.6,30.20,NW,304,1.0,2.0,100,0.00,,,0.02,51,Wunderground v.1.15,2013-12-09 16:20:00,
2013-12-09 11:26:00,40.8,40.8,30.20,WSW,247,2.0,5.0,100,0.00,,,0.02,44,Wunderground v.1.15,2013-12-09 16:26:00,
2013-12-09 11:32:00,40.8,40.8,30.18,SW,232,2.0,2.0,100,0.00,,,0.02,51,Wunderground v.1.15,2013-12-09 16:32:00,
2013-12-09 11:38:00,40.6,40.6,30.18,SW,227,2.0,2.0,100,0.00,,,0.03,51,Wunderground v.1.15,2013-12-09 16:38:00,
2013-12-09 11:44:00,40.6,40.6,30.17,SW,224,2.0,2.0,100,0.11,,,0.04,51,Wunderground v.1.15,2013-12-09 16:44:00,
2013-12-09 11:50:00,40.8,40.8,30.17,SW,223,2.0,2.0,100,0.11,,,0.05,58,Wunderground v.1.15,2013-12-09 16:50:00,
2013-12-09 11:56:00,41.1,41.1,30.17,SW,222,2.0,2.0,100,0.42,,,0.07,56,Wunderground v.1.15,2013-12-09 16:56:00,
2013-12-09 12:02:00,41.3,41.3,30.15,SSW,203,2.0,3.0,100,0.22,,,0.09,95,Wunderground v.1.15,2013-12-09 17:02:00,
2013-12-09 12:08:00,42.5,42.5,30.15,WSW,237,2.0,3.0,100,0.07,,,0.09,209,Wunderground v.1.15,2013-12-09 17:08:00,
2013-12-09 12:14:00,42.8,42.8,30.15,SSW,195,2.0,2.0,100,0.04,,,0.09,104,Wunderground v.1.15,2013-12-09 17:14:00,
2013-12-09 12:20:00,42.8,42.8,30.15,SW,234,2.0,2.0,100,0.00,,,0.09,72,Wunderground v.1.15,2013-12-09 17:20:00,
2013-12-09 12:26:00,42.3,42.3,30.15,SW,234,1.0,2.0,100,0.00,,,0.09,62,Wunderground v.1.15,2013-12-09 17:26:00,
2013-12-09 12:32:00,42.3,42.3,30.16,NW,308,1.0,3.0,100,0.00,,,0.09,74,Wunderground v.1.15,2013-12-09 17:32:00,
2013-12-09 12:38:00,42.5,42.5,30.16,NW,308,1.0,3.0,100,0.00,,,0.09,51,Wunderground v.1.15,2013-12-09 17:38:00,
2013-12-09 12:44:00,42.5,42.5,30.16,West,268,1.0,2.0,100,0.00,,,0.09,69,Wunderground v.1.15,2013-12-09 17:44:00,
2013-12-09 12:50:00,42.5,42.5,30.14,NW,315,1.0,3.0,100,0.00,,,0.09,62,Wunderground v.1.15,2013-12-09 17:50:00,
2013-12-09 12:56:00,42.6,42.6,30.14,NNW,335,2.0,2.0,100,0.00,,,0.09,60,Wunderground v.1.15,2013-12-09 17:56:00,
2013-12-09 13:02:00,42.6,42.6,30.15,NW,309,3.0,7.0,100,0.00,,,0.09,63,Wunderground v.1.15,2013-12-09 18:02:00,
2013-12-09 13:08:00,42.8,42.8,30.15,WNW,294,4.0,7.0,100,0.00,,,0.09,109,Wunderground v.1.15,2013-12-09 18:08:00,
2013-12-09 13:14:00,42.9,42.9,30.14,NNW,337,4.0,7.0,100,0.00,,,0.09,121,Wunderground v.1.15,2013-12-09 18:14:00,
2013-12-09 13:20:00,42.9,42.9,30.14,NW,313,4.0,7.0,100,0.00,,,0.09,72,Wunderground v.1.15,2013-12-09 18:20:00,
2013-12-09 13:26:00,42.9,42.9,30.14,NW,323,3.0,5.0,100,0.00,,,0.09,42,Wunderground v.1.15,2013-12-09 18:26:00,
2013-12-09 13:32:00,42.9,42.9,30.14,WNW,298,3.0,3.0,100,0.00,,,0.09,42,Wunderground v.1.15,2013-12-09 18:32:00,
2013-12-09 13:38:00,42.9,42.9,30.14,West,270,2.0,3.0,100,0.00,,,0.09,46,Wunderground v.1.15,2013-12-09 18:38:00,
2013-12-09 13:44:00,42.8,42.8,30.14,NW,316,1.0,2.0,100,0.00,,,0.09,42,Wunderground v.1.15,2013-12-09 18:44:00,
2013-12-09 13:50:00,42.9,42.9,30.14,NW,315,1.0,5.0,100,0.00,,,0.09,35,Wunderground v.1.15,2013-12-09 18:50:00,
2013-12-09 13:56:00,42.9,42.9,30.14,NW,315,1.0,2.0,100,0.00,,,0.09,28,Wunderground v.1.15,2013-12-09 18:56:00,
2013-12-09 14:02:00,42.9,42.9,30.12,NW,315,0.0,1.0,100,0.00,,,0.10,35,Wunderground v.1.15,2013-12-09 19:02:00,
2013-12-09 14:08:00,43.1,43.1,30.12,NW,315,1.0,2.0,100,0.00,,,0.10,30,Wunderground v.1.15,2013-12-09 19:08:00,
2013-12-09 14:14:00,43.2,43.2,30.13,WSW,256,1.0,4.0,100,0.00,,,0.10,33,Wunderground v.1.15,2013-12-09 19:14:00,
2013-12-09 14:20:00,43.2,43.2,30.13,West,277,2.0,5.0,100,0.00,,,0.10,23,Wunderground v.1.15,2013-12-09 19:20:00,
2013-12-09 14:26:00,43.2,43.2,30.13,WSW,257,2.0,5.0,100,0.00,,,0.10,28,Wunderground v.1.15,2013-12-09 19:26:00,
2013-12-09 14:32:00,43.3,43.3,30.11,WSW,237,2.0,2.0,100,0.00,,,0.11,39,Wunderground v.1.15,2013-12-09 19:32:00,
2013-12-09 14:38:00,43.5,43.5,30.11,WSW,237,1.0,4.0,100,0.00,,,0.11,32,Wunderground v.1.15,2013-12-09 19:38:00,
2013-12-09 14:44:00,43.5,43.5,30.12,WSW,237,2.0,4.0,100,0.00,,,0.11,30,Wunderground v.1.15,2013-12-09 19:44:00,
2013-12-09 14:50:00,43.6,43.6,30.12,WSW,251,2.0,2.0,100,0.00,,,0.11,32,Wunderground v.1.15,2013-12-09 19:50:00,
2013-12-09 14:56:00,43.8,43.8,30.12,WSW,237,1.0,2.0,100,0.00,,,0.11,30,Wunderground v.1.15,2013-12-09 19:56:00,
2013-12-09 15:02:00,43.9,43.9,30.11,WSW,243,2.0,2.0,100,0.00,,,0.11,30,Wunderground v.1.15,2013-12-09 20:02:00,
2013-12-09 15:08:00,43.9,43.9,30.11,WSW,243,2.0,2.0,100,0.00,,,0.11,30,Wunderground v.1.15,2013-12-09 20:08:00,
2013-12-09 15:14:00,44.1,44.1,30.12,WSW,243,1.0,2.0,100,0.00,,,0.12,28,Wunderground v.1.15,2013-12-09 20:14:00,
2013-12-09 15:20:00,44.1,44.1,30.12,WSW,243,0.0,0.0,100,0.14,,,0.14,32,Wunderground v.1.15,2013-12-09 20:20:00,
2013-12-09 15:26:00,44.2,44.2,30.12,WSW,243,1.0,2.0,100,0.07,,,0.14,26,Wunderground v.1.15,2013-12-09 20:26:00,
2013-12-09 15:32:00,44.2,44.2,30.13,NNW,343,2.0,5.0,100,0.10,,,0.15,19,Wunderground v.1.15,2013-12-09 20:32:00,
2013-12-09 15:38:00,44.2,44.2,30.13,WNW,299,2.0,5.0,100,0.12,,,0.16,33,Wunderground v.1.15,2013-12-09 20:38:00,
2013-12-09 15:44:00,44.2,44.2,30.12,WNW,299,1.0,2.0,100,0.06,,,0.16,23,Wunderground v.1.15,2013-12-09 20:44:00,
2013-12-09 15:50:00,44.3,44.3,30.12,WSW,248,0.0,0.0,100,0.04,,,0.16,53,Wunderground v.1.15,2013-12-09 20:50:00,
2013-12-09 15:56:00,44.5,44.5,30.12,WSW,248,1.0,2.0,100,0.00,,,0.17,28,Wunderground v.1.15,2013-12-09 20:56:00,
2013-12-09 16:02:00,44.6,44.6,30.11,WSW,248,0.0,1.0,100,0.00,,,0.17,37,Wunderground v.1.15,2013-12-09 21:02:00,
2013-12-09 16:08:00,44.6,44.6,30.11,WSW,248,0.0,1.0,100,0.00,,,0.17,28,Wunderground v.1.15,2013-12-09 21:08:00,
2013-12-09 16:14:00,44.6,44.6,30.13,NW,304,1.0,2.0,100,0.00,,,0.17,16,Wunderground v.1.15,2013-12-09 21:14:00,
2013-12-09 16:20:00,44.8,44.8,30.13,NW,304,1.0,1.0,100,0.00,,,0.17,21,Wunderground v.1.15,2013-12-09 21:20:00,
2013-12-09 16:26:00,44.8,44.8,30.13,NW,304,0.0,1.0,100,0.00,,,0.17,12,Wunderground v.1.15,2013-12-09 21:26:00,
2013-12-09 16:32:00,44.8,44.8,30.14,NW,304,1.0,3.0,100,0.00,,,0.17,9,Wunderground v.1.15,2013-12-09 21:32:00,
2013-12-09 16:38:00,44.6,44.6,30.14,NW,304,1.0,3.0,100,0.00,,,0.17,9,Wunderground v.1.15,2013-12-09 21:38:00,
2013-12-09 16:44:00,44.6,44.6,30.13,NW,304,0.0,1.0,100,0.00,,,0.17,11,Wunderground v.1.15,2013-12-09 21:44:00,
2013-12-09 16:50:00,44.6,44.6,30.13,NW,304,0.0,0.0,100,0.00,,,0.17,7,Wunderground v.1.15,2013-12-09 21:50:00,
2013-12-09 16:56:00,44.6,44.6,30.13,NW,304,0.0,0.0,100,0.00,,,0.17,7,Wunderground v.1.15,2013-12-09 21:56:00,
2013-12-09 17:02:00,44.6,44.6,30.13,WSW,239,1.0,1.0,100,0.00,,,0.17,5,Wunderground v.1.15,2013-12-09 22:02:00,
2013-12-09 17:08:00,44.6,44.6,30.13,WSW,239,1.0,1.0,100,0.00,,,0.17,0,Wunderground v.1.15,2013-12-09 22:08:00,
2013-12-09 17:14:00,44.6,44.6,30.13,WSW,239,0.0,0.0,100,0.00,,,0.17,0,Wunderground v.1.15,2013-12-09 22:14:00,
2013-12-09 17:20:00,44.6,44.6,30.13,WSW,239,0.0,0.0,100,0.00,,,0.17,0,Wunderground v.1.15,2013-12-09 22:20:00,
2013-12-09 17:26:00,44.6,44.6,30.13,WSW,239,0.0,0.0,100,0.00,,,0.17,0,Wunderground v.1.15,2013-12-09 22:26:00,
2013-12-09 17:32:00,44.8,44.8,30.11,WSW,239,0.0,0.0,100,0.00,,,0.17,0,Wunderground v.1.15,2013-12-09 22:32:00,
2013-12-09 17:38:00,44.8,44.8,30.11,WSW,239,0.0,0.0,100,0.00,,,0.17,0,Wunderground v.1.15,2013-12-09 22:38:00,
2013-12-09 17:44:00,44.8,44.8,30.11,WSW,239,0.0,0.0,100,0.00,,,0.18,0,Wunderground v.1.15,2013-12-09 22:44:00,
2013-12-09 17:50:00,44.9,44.9,30.11,WSW,239,1.0,2.0,100,0.00,,,0.18,0,Wunderground v.1.15,2013-12-09 22:50:00,
2013-12-09 17:56:00,44.9,44.9,30.11,WSW,239,1.0,2.0,100,0.00,,,0.18,0,Wunderground v.1.15,2013-12-09 22:56:00,
2013-12-09 18:02:00,44.9,44.9,30.12,WSW,239,1.0,1.0,100,0.00,,,0.18,0,Wunderground v.1.15,2013-12-09 23:02:00,
2013-12-09 18:08:00,44.9,44.9,30.12,WSW,239,1.0,2.0,100,0.00,,,0.18,0,Wunderground v.1.15,2013-12-09 23:08:00,
2013-12-09 18:14:00,45.1,45.1,30.11,WSW,239,1.0,2.0,100,0.00,,,0.18,0,Wunderground v.1.15,2013-12-09 23:14:00,
2013-12-09 18:20:00,45.1,45.1,30.11,WSW,239,0.0,2.0,100,0.00,,,0.19,0,Wunderground v.1.15,2013-12-09 23:20:00,
2013-12-09 18:26:00,45.1,45.1,30.11,WSW,239,1.0,5.0,100,0.12,,,0.20,0,Wunderground v.1.15,2013-12-09 23:26:00,
2013-12-09 18:32:00,45.1,45.1,30.12,WSW,239,2.0,2.0,100,0.05,,,0.20,0,Wunderground v.1.15,2013-12-09 23:32:00,
2013-12-09 18:38:00,45.1,45.1,30.12,WSW,239,1.0,2.0,100,0.05,,,0.21,0,Wunderground v.1.15,2013-12-09 23:38:00,
2013-12-09 18:44:00,45.2,45.2,30.12,WSW,239,1.0,1.0,100,0.05,,,0.21,0,Wunderground v.1.15,2013-12-09 23:44:00,
2013-12-09 18:50:00,45.2,45.2,30.12,WSW,239,1.0,1.0,100,0.04,,,0.21,0,Wunderground v.1.15,2013-12-09 23:50:00,
2013-12-09 18:56:00,45.2,45.2,30.12,WSW,239,0.0,0.0,100,0.00,,,0.21,0,Wunderground v.1.15,2013-12-09 23:56:00,
2013-12-09 19:02:00,45.2,45.2,30.12,WSW,239,0.0,0.0,100,0.00,,,0.21,0,Wunderground v.1.15,2013-12-10 00:02:00,
2013-12-09 19:08:00,45.4,45.4,30.12,WSW,239,0.0,1.0,100,0.00,,,0.22,0,Wunderground v.1.15,2013-12-10 00:08:00,
2013-12-09 19:14:00,45.4,45.4,30.13,WSW,239,1.0,3.0,100,0.00,,,0.22,0,Wunderground v.1.15,2013-12-10 00:14:00,
2013-12-09 19:20:00,45.4,45.4,30.13,WSW,239,1.0,1.0,100,0.00,,,0.22,0,Wunderground v.1.15,2013-12-10 00:20:00,
2013-12-09 19:26:00,45.5,45.5,30.13,WSW,239,1.0,2.0,100,0.04,,,0.23,0,Wunderground v.1.15,2013-12-10 00:26:00,
2013-12-09 19:32:00,45.5,45.5,30.12,WSW,239,1.0,2.0,100,0.04,,,0.23,0,Wunderground v.1.15,2013-12-10 00:32:00,
2013-12-09 19:38:00,45.5,45.5,30.12,WSW,239,0.0,2.0,100,0.04,,,0.24,0,Wunderground v.1.15,2013-12-10 00:38:00,
2013-12-09 19:44:00,45.7,45.7,30.12,WSW,239,1.0,2.0,100,0.04,,,0.24,0,Wunderground v.1.15,2013-12-10 00:44:00,
2013-12-09 19:50:00,45.7,45.7,30.12,WSW,239,2.0,2.0,100,0.05,,,0.25,0,Wunderground v.1.15,2013-12-10 00:50:00,
2013-12-09 19:56:00,45.7,45.7,30.12,WSW,239,1.0,2.0,100,0.05,,,0.25,0,Wunderground v.1.15,2013-12-10 00:56:00,
2013-12-09 20:02:00,45.7,45.7,30.11,WSW,237,2.0,2.0,100,0.05,,,0.25,0,Wunderground v.1.15,2013-12-10 01:02:00,
2013-12-09 20:08:00,45.7,45.7,30.11,WSW,239,2.0,2.0,100,0.00,,,0.25,0,Wunderground v.1.15,2013-12-10 01:08:00,
2013-12-09 20:14:00,45.7,45.7,30.12,WSW,237,1.0,2.0,100,0.00,,,0.25,0,Wunderground v.1.15,2013-12-10 01:14:00,
2013-12-09 20:20:00,45.7,45.7,30.12,WSW,237,1.0,1.0,100,0.00,,,0.25,0,Wunderground v.1.15,2013-12-10 01:20:00,
2013-12-09 20:26:00,45.7,45.7,30.12,WSW,237,0.0,1.0,100,0.00,,,0.25,0,Wunderground v.1.15,2013-12-10 01:26:00,
2013-12-09 20:32:00,45.7,45.7,30.11,WSW,237,1.0,1.0,100,0.00,,,0.25,0,Wunderground v.1.15,2013-12-10 01:32:00,
2013-12-09 20:38:00,45.7,45.7,30.11,WSW,237,1.0,1.0,100,0.00,,,0.26,0,Wunderground v.1.15,2013-12-10 01:38:00,
2013-12-09 20:44:00,45.8,45.8,30.11,WSW,237,0.0,1.0,100,0.00,,,0.26,0,Wunderground v.1.15,2013-12-10 01:44:00,
2013-12-09 20:50:00,45.8,45.8,30.11,WSW,237,0.0,0.0,100,0.00,,,0.26,0,Wunderground v.1.15,2013-12-10 01:50:00,
2013-12-09 20:56:00,45.8,45.8,30.11,WSW,237,0.0,2.0,100,0.00,,,0.26,0,Wunderground v.1.15,2013-12-10 01:56:00,
2013-12-09 21:02:00,45.8,45.8,30.12,WSW,237,0.0,0.0,100,0.00,,,0.27,0,Wunderground v.1.15,2013-12-10 02:02:00,
2013-12-09 21:08:00,45.8,45.8,30.12,WSW,237,0.0,0.0,100,0.00,,,0.27,0,Wunderground v.1.15,2013-12-10 02:08:00,
2013-12-09 21:14:00,46.0,46.0,30.11,WSW,237,1.0,2.0,100,0.00,,,0.27,0,Wunderground v.1.15,2013-12-10 02:14:00,
2013-12-09 21:20:00,46.0,46.0,30.11,WSW,237,1.0,1.0,100,0.00,,,0.27,0,Wunderground v.1.15,2013-12-10 02:20:00,
2013-12-09 21:26:00,46.0,46.0,30.11,WSW,237,0.0,1.0,100,0.00,,,0.27,0,Wunderground v.1.15,2013-12-10 02:26:00,
2013-12-09 21:32:00,46.0,46.0,30.11,WSW,237,0.0,0.0,100,0.00,,,0.27,0,Wunderground v.1.15,2013-12-10 02:32:00,
2013-12-09 21:38:00,46.1,46.1,30.11,WSW,237,0.0,2.0,100,0.00,,,0.27,0,Wunderground v.1.15,2013-12-10 02:38:00,
2013-12-09 21:44:00,46.1,46.1,30.11,WSW,237,0.0,0.0,100,0.00,,,0.27,0,Wunderground v.1.15,2013-12-10 02:44:00,
2013-12-09 21:50:00,46.1,46.1,30.11,WSW,237,0.0,0.0,100,0.00,,,0.27,0,Wunderground v.1.15,2013-12-10 02:50:00,
2013-12-09 21:56:00,46.1,46.1,30.11,WSW,237,0.0,0.0,100,0.00,,,0.27,0,Wunderground v.1.15,2013-12-10 02:56:00,
2013-12-09 22:02:00,46.1,46.1,30.12,WSW,237,0.0,0.0,100,0.00,,,0.27,0,Wunderground v.1.15,2013-12-10 03:02:00,
2013-12-09 22:08:00,46.2,46.2,30.12,WSW,237,0.0,0.0,100,0.00,,,0.27,0,Wunderground v.1.15,2013-12-10 03:08:00,
2013-12-09 22:14:00,46.2,46.2,30.11,WSW,237,1.0,2.0,100,0.00,,,0.27,0,Wunderground v.1.15,2013-12-10 03:14:00,
2013-12-09 22:20:00,46.2,46.2,30.11,WSW,237,1.0,2.0,100,0.00,,,0.27,0,Wunderground v.1.15,2013-12-10 03:20:00,
2013-12-09 22:26:00,46.2,46.2,30.11,WSW,237,0.0,1.0,100,0.00,,,0.27,0,Wunderground v.1.15,2013-12-10 03:26:00,
2013-12-09 22:32:00,46.2,46.2,30.12,WSW,237,0.0,0.0,100,0.00,,,0.27,0,Wunderground v.1.15,2013-12-10 03:32:00,
2013-12-09 22:38:00,46.2,46.2,30.12,WSW,237,0.0,0.0,100,0.00,,,0.27,0,Wunderground v.1.15,2013-12-10 03:38:00,
2013-12-09 22:44:00,46.2,46.2,30.11,WSW,237,0.0,0.0,100,0.00,,,0.27,0,Wunderground v.1.15,2013-12-10 03:44:00,
2013-12-09 22:50:00,46.2,46.2,30.11,WSW,237,0.0,0.0,100,0.00,,,0.27,0,Wunderground v.1.15,2013-12-10 03:50:00,
2013-12-09 22:56:00,46.2,46.2,30.11,WSW,237,0.0,0.0,100,0.00,,,0.27,0,Wunderground v.1.15,2013-12-10 03:56:00,
2013-12-09 23:02:00,46.4,46.4,30.11,WSW,237,0.0,1.0,100,0.00,,,0.27,0,Wunderground v.1.15,2013-12-10 04:02:00,
2013-12-09 23:08:00,46.4,46.4,30.11,WSW,237,0.0,1.0,100,0.00,,,0.27,0,Wunderground v.1.15,2013-12-10 04:08:00,
2013-12-09 23:14:00,46.4,46.4,30.10,WSW,237,0.0,0.0,100,0.00,,,0.27,0,Wunderground v.1.15,2013-12-10 04:14:00,
2013-12-09 23:21:00,46.4,46.4,30.10,WSW,237,0.0,0.0,100,0.00,,,0.27,0,Wunderground v.1.15,2013-12-10 04:21:00,
2013-12-09 23:26:00,46.5,46.5,30.10,WSW,237,0.0,1.0,100,0.00,,,0.27,0,Wunderground v.1.15,2013-12-10 04:26:00,
2013-12-09 23:32:00,46.5,46.5,30.10,WSW,237,0.0,0.0,100,0.00,,,0.27,0,Wunderground v.1.15,2013-12-10 04:32:00,
2013-12-09 23:38:00,46.5,46.5,30.10,WSW,237,0.0,0.0,100,0.00,,,0.27,0,Wunderground v.1.15,2013-12-10 04:38:00,
2013-12-09 23:44:00,46.5,46.5,30.09,WSW,237,0.0,1.0,100,0.00,,,0.27,0,Wunderground v.1.15,2013-12-10 04:44:00,
2013-12-09 23:50:00,46.5,46.5,30.09,WSW,237,0.0,0.0,100,0.00,,,0.27,0,Wunderground v.1.15,2013-12-10 04:50:00,
2013-12-09 23:56:00,46.7,46.7,30.09,WSW,237,0.0,0.0,100,0.00,,,0.27,0,Wunderground v.1.15,2013-12-10 04:56:00,